weather.gov     
National Weather Service

Regional Weather Roundup
NWS Homepage
This page is being discontinued on March 12, 2014.
The same data is available at this site. Please update your bookmarks.
Thank you, and we apologize for the inconvenience.
Please send an email to SR-SRH.Webmaster@noaa.gov with any concerns.


Current Version
Previous Version:    01  02  03  04  05  06  07  08  09  10  11  12  13  14  15  16  17  18  19  20  21  22  23  24  25  26  27  28  29  30  
   31  32  33  34  35  36  37  38  39  40  41  42  43  44  45  46  47  48  49  50  51  52  53  54  55  56  57  58  59  60  
[Printable]
347
NZUS01 KOTX 240710
RWROTX
EASTERN WASHINGTON/NORTHERN IDAHO ROUNDUP
NATIONAL WEATHER SERVICE, SPOKANE WA
1200 AM PDT FRI OCT 24 2014

Note: "fair" indicated few or no clouds below 12,000 feet with no
significant weather and/or obstructions to visibility.

...NORTHEAST WASHINGTON AND NORTHERN IDAHO PANHANDLE...

CITY           SKY/WX    TMP DP  RH WIND       PRES   REMARKS
SPOKANE INTL   CLOUDY    46  42  86 SW14      29.97R
SPOKANE DOWNTO CLOUDY    48  43  82 SW9       29.99R
COEUR D ALENE  CLOUDY    48  41  76 S8        29.98R
DEER PARK      CLOUDY    46  42  86 S12       29.98R
SANDPOINT      CLOUDY    46  45  93 SW3       29.95R

...SOUTHEAST WASHINGTON AND SOUTHERN IDAHO PANHANDLE...

CITY           SKY/WX    TMP DP  RH WIND       PRES   REMARKS
WALLA WALLA    CLOUDY    52  46  80 SE7       30.03R
PULLMAN/MOSCOW CLOUDY    47  40  76 W3        30.04R
LEWISTON       CLOUDY    51  48  89 CALM      30.03R
LOWELL           N/A     51  50  96 CALM      30.05R

...COLUMBIA BASIN...

CITY           SKY/WX    TMP DP  RH WIND       PRES   REMARKS
EPHRATA        MOCLDY    43  36  76 S6        29.98R
MOSES LAKE     MOCLDY    45  38  76 S7        29.99R
TRI CITIES     CLOUDY    52  45  77 SW8       30.02R
HERMISTON      CLOUDY    47  44  90 SE3       30.03R
PENDLETON      CLOUDY    47  44  90 E7        30.02R

...EAST SLOPES CASCADES...

CITY           SKY/WX    TMP DP  RH WIND       PRES   REMARKS
THE DALLES     CLOUDY    48  43  82 CALM      30.02S
YAKIMA         MOCLDY    42  38  85 W5        30.01R
ELLENSBURG     MOCLDY    43  37  79 W9        30.00R
WENATCHEE      MOCLDY    45  36  70 CALM      29.99R
OMAK           PTCLDY    45  35  68 S10       29.94R

...SOUTHERN BRITISH COLUMBIA...

CITY           SKY/WX    TMP DP  RH WIND       PRES   REMARKS
PENTICTON      MOCLDY    46  37  71 CALM      29.93R
CRANBROOK      PTCLDY    41  34  75 CALM      29.85R

...WESTERN MONTANA...

CITY           SKY/WX    TMP DP  RH WIND       PRES   REMARKS
MISSOULA       CLOUDY    46  44  93 W5        30.02S

...NEIGHBORING CITIES...

CITY           SKY/WX    TMP DP  RH WIND       PRES   REMARKS
SEATTLE        CLOUDY    50  44  80 SE7       30.01R
CALGARY        PTCLDY    46  27  46 W13G24    29.67R




U.S. Dept. of Commerce
NOAA National Weather Service
1325 East West Highway
Silver Spring, MD 20910
E-mail: w-nws.webmaster@noaa.gov
Page last modified: May 16, 2007
NATIONAL WEATHER SERVICE: for Safety, for Work, for Fun - FOR LIFE